Location: Caltech
(34.1382°N, 118.1253°W)
Time: 07:08:42
(UTC-07:00)

Tiros 1 despin weight - All Passes

Search period start: 21 June 2018 00:00
Search period end: 01 July 2018 00:00
Orbit: 594 x 644 km, 48.2° (Epoch: 20 June)

Date Brightness Start Highest point End Pass type
(mag) Time Alt. Az. Time Alt. Az. Time Alt. Az.
21 Jun - 00:23:33 10° NNW 00:26:07 14° N 00:28:40 10° NE visible
21 Jun - 02:05:06 10° NNW 02:09:00 25° NNE 02:12:54 10° ENE visible
21 Jun - 03:46:18 10° NW 03:51:00 79° SW 03:55:39 10° SE visible
21 Jun - 05:30:37 10° WSW 05:31:58 11° SW 05:33:19 10° SW daylight
21 Jun - 19:32:02 10° SSW 19:36:13 37° SE 19:40:30 10° ENE daylight
21 Jun - 21:13:27 10° W 21:17:47 39° NNW 21:22:11 10° NE visible
21 Jun - 22:57:29 10° NW 23:00:24 16° N 23:03:18 10° NNE visible
22 Jun - 00:40:33 10° NNW 00:43:29 16° N 00:46:24 10° NE visible
22 Jun - 02:21:40 10° NW 02:26:05 39° NNE 02:30:29 10° E visible
22 Jun - 04:03:19 10° WNW 04:07:40 38° SW 04:11:57 10° SSE visible
22 Jun - 18:10:55 10° SE 18:11:56 11° SE 18:12:57 10° ESE daylight
22 Jun - 19:48:19 10° SW 19:52:53 78° SE 19:57:32 10° NE daylight
22 Jun - 21:31:02 10° WNW 21:34:51 25° NNW 21:38:44 10° NNE visible
22 Jun - 23:15:14 10° NW 23:17:46 14° N 23:20:18 10° NNE visible
23 Jun - 00:57:14 10° NNW 01:00:46 21° NNE 01:04:18 10° ENE visible
23 Jun - 02:38:17 10° NW 02:43:00 71° NE 02:47:39 10° ESE visible
23 Jun - 04:21:01 10° W 04:24:11 18° SW 04:27:18 10° S visible
23 Jun - 18:24:43 10° S 18:28:22 24° SE 18:32:04 10° ENE daylight
23 Jun - 20:05:12 10° WSW 20:09:42 54° NNW 20:14:16 10° NE daylight
23 Jun - 21:48:53 10° WNW 21:52:05 18° NNW 21:55:19 10° NNE visible
23 Jun - 23:32:30 10° NNW 23:35:09 15° N 23:37:48 10° NE visible
24 Jun - 01:13:47 10° NW 01:17:56 30° NNE 01:22:04 10° E visible
24 Jun - 02:55:07 10° WNW 02:59:44 58° SW 03:04:19 10° SE visible
24 Jun - 18:40:32 10° SSW 18:44:56 51° SE 18:49:25 10° ENE daylight
24 Jun - 20:22:34 10° W 20:26:41 31° NNW 20:30:50 10° NE daylight
24 Jun - 22:06:45 10° NW 22:09:25 15° N 22:12:06 10° NNE visible
24 Jun - 23:49:19 10° NNW 23:52:30 18° NNE 23:55:40 10° ENE visible
25 Jun - 01:30:21 10° NW 01:34:56 50° NNE 01:39:29 10° ESE visible
25 Jun - 03:12:22 10° WNW 03:16:20 27° SW 03:20:17 10° S night (unlit)
25 Jun - 17:17:54 10° SSE 17:20:34 15° SE 17:23:14 10° E daylight
25 Jun - 18:57:07 10° SW 19:01:39 78° NW 19:06:18 10° NE daylight
25 Jun - 20:40:17 10° WNW 20:43:49 21° NNW 20:47:23 10° NNE visible
25 Jun - 22:24:18 10° NNW 22:26:48 14° N 22:29:18 10° NE visible
26 Jun - 00:05:55 10° NNW 00:09:43 24° NNE 00:13:32 10° ENE visible
26 Jun - 01:47:03 10° NW 01:51:46 86° SW 01:56:28 10° SE visible
26 Jun - 03:30:46 10° WSW 03:32:48 13° SW 03:34:49 10° SSW night (unlit)
26 Jun - 17:33:00 10° SSW 17:37:03 33° SE 17:41:10 10° ENE daylight
26 Jun - 19:14:14 10° WSW 19:18:33 41° NNW 19:22:57 10° NE daylight
26 Jun - 20:58:11 10° NW 21:01:06 16° NNW 21:04:02 10° NNE visible
26 Jun - 22:41:22 10° NNW 22:44:11 16° N 22:47:01 10° NE visible
27 Jun - 00:22:27 10° NW 00:26:49 37° NNE 00:31:10 10° E visible
27 Jun - 02:04:01 10° WNW 02:08:27 42° SW 02:12:51 10° SSE visible
27 Jun - 17:49:11 10° SW 17:53:40 71° SE 17:58:16 10° NE daylight
27 Jun - 19:31:46 10° W 19:35:36 26° NNW 19:39:30 10° NNE daylight
27 Jun - 21:15:58 10° NW 21:18:27 14° N 21:20:58 10° NNE visible
27 Jun - 22:58:03 10° NNW 23:01:29 20° NNE 23:04:55 10° ENE visible
28 Jun - 00:39:04 10° NW 00:43:45 66° NE 00:48:24 10° ESE visible
28 Jun - 02:21:35 10° W 02:24:59 20° SW 02:28:22 10° S night (unlit)
28 Jun - 16:25:48 10° S 16:29:13 21° SE 16:32:40 10° E daylight
28 Jun - 18:06:00 10° WSW 18:10:28 58° NW 18:15:01 10° NE daylight
28 Jun - 19:49:35 10° WNW 19:52:48 18° NNW 19:56:03 10° NNE daylight
28 Jun - 21:33:17 10° NNW 21:35:51 14° N 21:38:25 10° NE visible
28 Jun - 23:14:36 10° NW 23:18:39 28° NNE 23:22:43 10° E visible
29 Jun - 00:55:52 10° WNW 01:00:31 64° SW 01:05:09 10° SE visible
29 Jun - 16:41:29 10° SSW 16:45:45 46° SE 16:50:08 10° ENE daylight
29 Jun - 18:23:19 10° W 18:27:25 33° NNW 18:31:36 10° NE daylight
29 Jun - 20:07:28 10° NW 20:10:08 15° N 20:12:47 10° NNE daylight
29 Jun - 21:50:09 10° NNW 21:53:11 17° NNE 21:56:15 10° NE visible
29 Jun - 23:31:09 10° NW 23:35:40 46° NNE 23:40:12 10° ESE visible
30 Jun - 01:13:01 10° WNW 01:17:08 30° SW 01:21:13 10° SSE visible
30 Jun - 15:19:12 10° SSE 15:21:25 14° SE 15:23:39 10° E daylight
30 Jun - 16:57:57 10° SW 17:02:27 85° NW 17:07:03 10° NE daylight
30 Jun - 18:41:00 10° WNW 18:44:33 22° NNW 18:48:09 10° NNE daylight
30 Jun - 20:25:05 10° NNW 20:27:30 14° N 20:29:56 10° NNE daylight
30 Jun - 22:06:45 10° NNW 22:10:26 23° NNE 22:14:09 10° ENE visible
30 Jun - 23:47:49 10° NW 23:52:31 87° NE 23:57:13 10° SE visible
